Torna al catalogo

STARLINK-31381

AttivoComunicazioniVLEO
NORAD 59469·PAYLOAD·🇺🇸 United States

Lanciato Apr 10, 2024 da Cape Canaveral Space Force Station

Loading…

Prossimi Passaggi (prossime 24 ore)

TLE

AggiornatoSource: CelesTrak SupGP

Epoca: Sep 14, 2026, 22:36 UTC

1 59469C 24068Q   26257.94215278  .00043238  00000+0  15660-2 0  2579
2 59469  43.0044  42.3616 0002023 275.7494 142.2220 15.27558341    12

Traccia STARLINK-31381 in tempo reale con AllMySat

Download on the App Store